TimeEDT,TemperatureF,Dew PointF,Humidity,Sea Level PressureIn,VisibilityMPH,Wind Direction,Wind SpeedMPH,Gust SpeedMPH,PrecipitationIn,Events,Conditions,WindDirDegrees,DateUTC
12:52 AM,55.9,50.0,80,30.19,10.0,SSW,5.8,-,N/A,,Clear,210,2013-09-10 04:52:00
1:52 AM,57.0,51.1,81,30.18,10.0,SSW,5.8,-,N/A,,Clear,210,2013-09-10 05:52:00
2:52 AM,57.9,51.1,78,30.19,10.0,SSW,6.9,-,N/A,,Clear,210,2013-09-10 06:52:00
3:52 AM,57.9,52.0,81,30.17,10.0,Calm,Calm,-,N/A,,Mostly Cloudy,0,2013-09-10 07:52:00
4:52 AM,60.1,53.1,78,30.16,10.0,South,4.6,-,N/A,,Overcast,190,2013-09-10 08:52:00
5:52 AM,63.0,55.0,75,30.17,10.0,SSW,3.5,-,N/A,,Overcast,200,2013-09-10 09:52:00
6:52 AM,64.0,55.0,73,30.17,10.0,SSW,9.2,-,N/A,,Overcast,200,2013-09-10 10:52:00
7:24 AM,64.4,55.4,73,30.17,10.0,SSW,8.1,-,N/A,,Overcast,200,2013-09-10 11:24:00
7:52 AM,64.9,55.9,73,30.17,10.0,SSW,9.2,-,N/A,,Overcast,210,2013-09-10 11:52:00
8:52 AM,64.9,57.0,75,30.17,10.0,SSW,11.5,-,N/A,,Overcast,210,2013-09-10 12:52:00
9:03 AM,66.2,57.2,73,30.17,10.0,SSW,12.7,-,N/A,,Overcast,210,2013-09-10 13:03:00
9:16 AM,66.2,57.2,73,30.17,10.0,SSW,11.5,-,N/A,,Overcast,210,2013-09-10 13:16:00
9:52 AM,66.0,57.0,73,30.16,10.0,SSW,8.1,-,N/A,,Overcast,200,2013-09-10 13:52:00
10:52 AM,69.1,59.0,70,30.16,10.0,SSW,11.5,23.0,N/A,,Overcast,210,2013-09-10 14:52:00
11:52 AM,71.1,61.0,70,30.15,10.0,SW,13.8,23.0,N/A,,Overcast,220,2013-09-10 15:52:00
12:52 PM,71.1,61.0,70,30.11,10.0,SSW,12.7,21.9,N/A,,Overcast,200,2013-09-10 16:52:00
1:22 PM,73.4,62.6,69,30.06,10.0,SSW,11.5,25.3,N/A,,Mostly Cloudy,200,2013-09-10 17:22:00
1:52 PM,73.0,63.0,71,30.07,10.0,SW,16.1,24.2,N/A,,Scattered Clouds,220,2013-09-10 17:52:00
2:10 PM,75.2,64.4,69,30.07,10.0,SW,17.3,25.3,N/A,,Mostly Cloudy,220,2013-09-10 18:10:00
2:52 PM,73.0,64.0,73,30.07,10.0,SSW,17.3,27.6,N/A,,Overcast,210,2013-09-10 18:52:00
3:52 PM,73.0,64.9,76,30.09,10.0,SW,15.0,23.0,N/A,,Overcast,220,2013-09-10 19:52:00
4:52 PM,72.0,64.9,78,30.09,10.0,SW,12.7,-,N/A,,Overcast,220,2013-09-10 20:52:00
5:52 PM,72.0,64.9,78,30.08,10.0,SSW,10.4,-,N/A,,Overcast,210,2013-09-10 21:52:00
6:24 PM,71.6,66.2,83,30.08,10.0,SSW,10.4,18.4,N/A,,Overcast,210,2013-09-10 22:24:00
6:52 PM,72.0,64.9,78,30.07,10.0,SSW,10.4,18.4,N/A,,Overcast,210,2013-09-10 22:52:00
7:52 PM,71.1,64.9,81,30.08,10.0,SSW,10.4,17.3,N/A,,Mostly Cloudy,210,2013-09-10 23:52:00
8:02 PM,69.8,64.4,83,30.09,10.0,SSW,13.8,-,N/A,,Scattered Clouds,210,2013-09-11 00:02:00
8:26 PM,69.8,64.4,83,30.09,10.0,SSW,11.5,-,N/A,,Mostly Cloudy,210,2013-09-11 00:26:00
8:52 PM,70.0,64.9,84,30.09,10.0,SW,13.8,-,N/A,,Overcast,220,2013-09-11 00:52:00
9:52 PM,71.1,66.0,84,30.11,10.0,SW,10.4,-,N/A,,Overcast,230,2013-09-11 01:52:00
10:50 PM,71.6,66.2,83,30.11,10.0,SSW,3.5,-,N/A,,Overcast,200,2013-09-11 02:50:00
10:52 PM,70.0,66.0,87,30.12,10.0,SSW,4.6,-,N/A,,Overcast,210,2013-09-11 02:52:00
11:52 PM,71.1,66.9,87,30.11,10.0,SSW,6.9,-,N/A,,Overcast,210,2013-09-11 03:52:00